Wetterdaten: Dienstag, 29.11.2016
Datum Zeit Temp. I. Temp. A. Feuchte I. Feuchte A. Luftdruck Regen Wind Richtung Richtung Taupunkt Windchill
29.11.2016 00:01 23,0 °C -3,7 °C 43 % 92 % 1033,0 hPa 0,0 l/m² 0,0 km/h (0 Bft) N 360 ° -4,8 °C -3,7 °C
29.11.2016 00:05 23,0 °C -3,8 °C 43 % 92 % 1033,0 hPa 0,0 l/m² 0,0 km/h (0 Bft) N 360 ° -4,9 °C -3,8 °C
29.11.2016 00:09 23,0 °C -3,9 °C 43 % 92 % 1033,1 hPa 0,0 l/m² 0,0 km/h (0 Bft) N 360 ° -5,0 °C -3,9 °C
29.11.2016 00:13 23,0 °C -3,9 °C 43 % 92 % 1033,1 hPa 0,0 l/m² 0,0 km/h (0 Bft) N 360 ° -5,0 °C -3,9 °C
29.11.2016 00:17 23,0 °C -3,9 °C 43 % 92 % 1033,0 hPa 0,0 l/m² 0,0 km/h (0 Bft) N 360 ° -5,0 °C -3,9 °C
29.11.2016 00:21 23,0 °C -4,1 °C 43 % 92 % 1033,0 hPa 0,0 l/m² 0,0 km/h (0 Bft) N 360 ° -5,2 °C -4,1 °C
29.11.2016 00:25 23,0 °C -4,1 °C 43 % 92 % 1033,0 hPa 0,0 l/m² 0,0 km/h (0 Bft) N 360 ° -5,2 °C -4,1 °C
29.11.2016 00:29 23,0 °C -4,1 °C 43 % 92 % 1033,1 hPa 0,0 l/m² 0,0 km/h (0 Bft) N 360 ° -5,2 °C -4,1 °C
29.11.2016 00:33 23,0 °C -4,2 °C 43 % 92 % 1033,0 hPa 0,0 l/m² 0,0 km/h (0 Bft) N 360 ° -5,3 °C -4,2 °C
29.11.2016 00:37 23,0 °C -4,2 °C 43 % 92 % 1033,1 hPa 0,0 l/m² 0,0 km/h (0 Bft) N 360 ° -5,3 °C -4,2 °C
29.11.2016 00:41 23,0 °C -4,4 °C 43 % 92 % 1033,2 hPa 0,0 l/m² 0,0 km/h (0 Bft) N 360 ° -5,5 °C -4,4 °C
29.11.2016 00:45 23,0 °C -4,4 °C 43 % 92 % 1033,2 hPa 0,0 l/m² 0,0 km/h (0 Bft) N 360 ° -5,5 °C -4,4 °C
29.11.2016 00:49 23,0 °C -4,4 °C 43 % 92 % 1033,2 hPa 0,0 l/m² 0,0 km/h (0 Bft) N 360 ° -5,5 °C -4,4 °C
29.11.2016 00:53 23,0 °C -4,4 °C 43 % 92 % 1033,2 hPa 0,0 l/m² 0,0 km/h (0 Bft) N 360 ° -5,5 °C -4,4 °C
29.11.2016 00:57 23,0 °C -4,5 °C 44 % 92 % 1033,2 hPa 0,0 l/m² 0,0 km/h (0 Bft) N 360 ° -5,6 °C -4,5 °C
29.11.2016 01:01 22,9 °C -4,5 °C 44 % 92 % 1033,2 hPa 0,0 l/m² 0,0 km/h (0 Bft) N 360 ° -5,6 °C -4,5 °C
29.11.2016 01:05 22,9 °C -4,5 °C 44 % 92 % 1033,1 hPa 0,0 l/m² 0,0 km/h (0 Bft) N 360 ° -5,6 °C -4,5 °C
29.11.2016 01:09 22,9 °C -4,6 °C 44 % 92 % 1033,2 hPa 0,0 l/m² 0,0 km/h (0 Bft) N 360 ° -5,7 °C -4,6 °C
29.11.2016 01:13 22,9 °C -4,7 °C 44 % 92 % 1033,0 hPa 0,0 l/m² 0,0 km/h (0 Bft) N 360 ° -5,8 °C -4,7 °C
29.11.2016 01:17 22,9 °C -4,7 °C 44 % 92 % 1033,1 hPa 0,0 l/m² 0,0 km/h (0 Bft) N 360 ° -5,8 °C -4,7 °C
29.11.2016 01:21 22,9 °C -4,7 °C 44 % 92 % 1033,1 hPa 0,0 l/m² 0,0 km/h (0 Bft) N 360 ° -5,8 °C -4,7 °C
29.11.2016 01:25 22,9 °C -4,8 °C 44 % 92 % 1033,2 hPa 0,0 l/m² 0,0 km/h (0 Bft) N 360 ° -5,9 °C -4,8 °C
29.11.2016 01:29 22,9 °C -4,9 °C 44 % 92 % 1033,1 hPa 0,0 l/m² 0,0 km/h (0 Bft) N 360 ° -6,0 °C -4,9 °C
29.11.2016 01:33 22,9 °C -4,9 °C 44 % 92 % 1033,1 hPa 0,0 l/m² 0,0 km/h (0 Bft) N 360 ° -6,0 °C -4,9 °C
29.11.2016 01:37 22,9 °C -4,9 °C 44 % 92 % 1033,0 hPa 0,0 l/m² 0,0 km/h (0 Bft) N 360 ° -6,0 °C -4,9 °C
29.11.2016 01:41 22,9 °C -4,9 °C 44 % 92 % 1033,1 hPa 0,0 l/m² 0,0 km/h (0 Bft) N 360 ° -6,0 °C -4,9 °C
29.11.2016 01:45 22,9 °C -5,0 °C 44 % 92 % 1033,1 hPa 0,0 l/m² 0,0 km/h (0 Bft) N 360 ° -6,1 °C -5,0 °C
29.11.2016 01:49 22,9 °C -5,1 °C 44 % 92 % 1033,2 hPa 0,0 l/m² 0,0 km/h (0 Bft) N 360 ° -6,2 °C -5,1 °C
29.11.2016 01:53 22,9 °C -5,1 °C 44 % 92 % 1033,2 hPa 0,0 l/m² 0,0 km/h (0 Bft) N 360 ° -6,2 °C -5,1 °C
29.11.2016 01:57 22,9 °C -5,1 °C 44 % 92 % 1033,2 hPa 0,0 l/m² 0,0 km/h (0 Bft) N 360 ° -6,2 °C -5,1 °C
29.11.2016 02:01 22,9 °C -5,1 °C 44 % 92 % 1033,2 hPa 0,0 l/m² 0,0 km/h (0 Bft) N 360 ° -6,2 °C -5,1 °C
29.11.2016 02:05 22,8 °C -5,1 °C 44 % 92 % 1033,2 hPa 0,0 l/m² 0,0 km/h (0 Bft) N 360 ° -6,2 °C -5,1 °C
29.11.2016 02:09 22,9 °C -5,2 °C 44 % 92 % 1033,2 hPa 0,0 l/m² 0,0 km/h (0 Bft) N 360 ° -6,3 °C -5,2 °C
29.11.2016 02:13 22,9 °C -5,3 °C 44 % 92 % 1033,2 hPa 0,0 l/m² 0,0 km/h (0 Bft) N 360 ° -6,4 °C -5,3 °C
29.11.2016 02:17 22,9 °C -5,3 °C 44 % 92 % 1033,3 hPa 0,0 l/m² 0,0 km/h (0 Bft) N 360 ° -6,4 °C -5,3 °C
29.11.2016 02:21 22,8 °C -5,4 °C 44 % 92 % 1033,4 hPa 0,0 l/m² 0,0 km/h (0 Bft) N 360 ° -6,5 °C -5,4 °C
29.11.2016 02:25 22,8 °C -5,4 °C 44 % 92 % 1033,5 hPa 0,0 l/m² 0,0 km/h (0 Bft) N 360 ° -6,5 °C -5,4 °C
29.11.2016 02:29 22,8 °C -5,5 °C 44 % 92 % 1033,5 hPa 0,0 l/m² 0,0 km/h (0 Bft) N 360 ° -6,6 °C -5,5 °C
29.11.2016 02:33 22,8 °C -5,6 °C 44 % 92 % 1033,4 hPa 0,0 l/m² 0,0 km/h (0 Bft) N 360 ° -6,7 °C -5,6 °C
29.11.2016 02:37 22,8 °C -5,6 °C 44 % 92 % 1033,5 hPa 0,0 l/m² 0,0 km/h (0 Bft) N 360 ° -6,7 °C -5,6 °C
29.11.2016 02:41 22,8 °C -5,6 °C 44 % 93 % 1033,5 hPa 0,0 l/m² 0,0 km/h (0 Bft) N 360 ° -6,5 °C -5,6 °C
29.11.2016 02:45 22,8 °C -5,6 °C 44 % 92 % 1033,5 hPa 0,0 l/m² 0,0 km/h (0 Bft) N 360 ° -6,7 °C -5,6 °C
29.11.2016 02:49 22,8 °C -5,6 °C 44 % 92 % 1033,5 hPa 0,0 l/m² 0,0 km/h (0 Bft) N 360 ° -6,7 °C -5,6 °C
29.11.2016 02:53 22,8 °C -5,6 °C 44 % 93 % 1033,6 hPa 0,0 l/m² 0,0 km/h (0 Bft) N 360 ° -6,5 °C -5,6 °C
29.11.2016 02:57 22,8 °C -5,6 °C 44 % 93 % 1033,4 hPa 0,0 l/m² 0,0 km/h (0 Bft) N 360 ° -6,5 °C -5,6 °C
29.11.2016 03:01 22,8 °C -5,6 °C 44 % 93 % 1033,4 hPa 0,0 l/m² 0,0 km/h (0 Bft) N 360 ° -6,5 °C -5,6 °C
29.11.2016 03:05 22,8 °C -5,7 °C 44 % 92 % 1033,4 hPa 0,0 l/m² 0,0 km/h (0 Bft) N 360 ° -6,8 °C -5,7 °C
29.11.2016 03:09 22,8 °C -5,7 °C 44 % 93 % 1033,4 hPa 0,0 l/m² 0,0 km/h (0 Bft) N 360 ° -6,6 °C -5,7 °C
29.11.2016 03:13 22,8 °C -5,8 °C 44 % 93 % 1033,3 hPa 0,0 l/m² 0,0 km/h (0 Bft) N 360 ° -6,7 °C -5,8 °C
29.11.2016 03:17 22,8 °C -5,8 °C 44 % 93 % 1033,3 hPa 0,0 l/m² 0,0 km/h (0 Bft) N 360 ° -6,7 °C -5,8 °C
29.11.2016 03:21 22,8 °C -5,8 °C 44 % 93 % 1033,3 hPa 0,0 l/m² 0,0 km/h (0 Bft) N 360 ° -6,7 °C -5,8 °C
29.11.2016 03:25 22,8 °C -5,9 °C 44 % 93 % 1033,3 hPa 0,0 l/m² 0,0 km/h (0 Bft) N 360 ° -6,8 °C -5,9 °C
29.11.2016 03:29 22,8 °C -5,9 °C 44 % 93 % 1033,1 hPa 0,0 l/m² 0,0 km/h (0 Bft) N 360 ° -6,8 °C -5,9 °C
29.11.2016 03:33 22,8 °C -5,9 °C 44 % 93 % 1033,0 hPa 0,0 l/m² 0,0 km/h (0 Bft) N 360 ° -6,8 °C -5,9 °C
29.11.2016 03:37 22,8 °C -6,0 °C 44 % 93 % 1033,1 hPa 0,0 l/m² 0,0 km/h (0 Bft) N 360 ° -6,9 °C -6,0 °C
29.11.2016 03:41 22,8 °C -6,0 °C 44 % 93 % 1033,1 hPa 0,0 l/m² 0,0 km/h (0 Bft) N 360 ° -6,9 °C -6,0 °C
29.11.2016 03:45 22,8 °C -6,1 °C 44 % 93 % 1033,1 hPa 0,0 l/m² 0,0 km/h (0 Bft) N 360 ° -7,0 °C -6,1 °C
29.11.2016 03:49 22,8 °C -6,1 °C 44 % 93 % 1033,1 hPa 0,0 l/m² 0,0 km/h (0 Bft) N 360 ° -7,0 °C -6,1 °C
29.11.2016 03:53 22,8 °C -6,1 °C 44 % 93 % 1033,0 hPa 0,0 l/m² 0,0 km/h (0 Bft) N 360 ° -7,0 °C -6,1 °C
29.11.2016 03:57 22,8 °C -6,1 °C 44 % 93 % 1032,9 hPa 0,0 l/m² 0,0 km/h (0 Bft) N 360 ° -7,0 °C -6,1 °C
29.11.2016 04:01 22,8 °C -6,1 °C 44 % 93 % 1033,0 hPa 0,0 l/m² 0,0 km/h (0 Bft) N 360 ° -7,0 °C -6,1 °C
29.11.2016 04:05 22,8 °C -6,1 °C 44 % 93 % 1033,1 hPa 0,0 l/m² 0,0 km/h (0 Bft) N 360 ° -7,0 °C -6,1 °C
29.11.2016 04:09 22,8 °C -6,1 °C 44 % 93 % 1033,1 hPa 0,0 l/m² 0,0 km/h (0 Bft) N 360 ° -7,0 °C -6,1 °C
29.11.2016 04:13 22,8 °C -6,2 °C 44 % 93 % 1033,1 hPa 0,0 l/m² 0,0 km/h (0 Bft) N 360 ° -7,1 °C -6,2 °C
29.11.2016 04:17 22,8 °C -6,2 °C 44 % 93 % 1033,1 hPa 0,0 l/m² 0,0 km/h (0 Bft) N 360 ° -7,1 °C -6,2 °C
29.11.2016 04:21 22,8 °C -6,2 °C 44 % 93 % 1033,1 hPa 0,0 l/m² 0,0 km/h (0 Bft) N 360 ° -7,1 °C -6,2 °C
29.11.2016 04:25 22,8 °C -6,2 °C 44 % 93 % 1033,1 hPa 0,0 l/m² 0,0 km/h (0 Bft) N 360 ° -7,1 °C -6,2 °C
29.11.2016 04:29 22,7 °C -6,2 °C 44 % 93 % 1033,2 hPa 0,0 l/m² 0,0 km/h (0 Bft) N 360 ° -7,1 °C -6,2 °C
29.11.2016 04:33 22,7 °C -6,2 °C 45 % 93 % 1033,2 hPa 0,0 l/m² 0,0 km/h (0 Bft) N 360 ° -7,1 °C -6,2 °C
29.11.2016 04:37 22,7 °C -6,2 °C 44 % 93 % 1033,3 hPa 0,0 l/m² 0,0 km/h (0 Bft) N 360 ° -7,1 °C -6,2 °C
29.11.2016 04:41 22,7 °C -6,4 °C 45 % 93 % 1033,1 hPa 0,0 l/m² 0,0 km/h (0 Bft) N 360 ° -7,3 °C -6,4 °C
29.11.2016 04:45 22,7 °C -6,4 °C 45 % 93 % 1033,2 hPa 0,0 l/m² 0,0 km/h (0 Bft) N 360 ° -7,3 °C -6,4 °C
29.11.2016 04:49 22,7 °C -6,4 °C 44 % 93 % 1033,0 hPa 0,0 l/m² 0,0 km/h (0 Bft) N 360 ° -7,3 °C -6,4 °C
29.11.2016 04:53 22,7 °C -6,4 °C 44 % 93 % 1033,1 hPa 0,0 l/m² 0,0 km/h (0 Bft) N 360 ° -7,3 °C -6,4 °C
29.11.2016 04:57 22,7 °C -6,4 °C 45 % 93 % 1033,0 hPa 0,0 l/m² 0,0 km/h (0 Bft) N 360 ° -7,3 °C -6,4 °C
29.11.2016 05:01 22,7 °C -6,2 °C 44 % 93 % 1033,0 hPa 0,0 l/m² 0,0 km/h (0 Bft) N 360 ° -7,1 °C -6,2 °C
29.11.2016 05:05 22,7 °C -6,4 °C 44 % 93 % 1033,1 hPa 0,0 l/m² 0,0 km/h (0 Bft) N 360 ° -7,3 °C -6,4 °C
29.11.2016 05:09 22,7 °C -6,4 °C 45 % 92 % 1033,2 hPa 0,0 l/m² 0,0 km/h (0 Bft) N 360 ° -7,5 °C -6,4 °C
29.11.2016 05:13 22,7 °C -6,4 °C 45 % 92 % 1033,1 hPa 0,0 l/m² 0,0 km/h (0 Bft) N 360 ° -7,5 °C -6,4 °C
29.11.2016 05:17 22,7 °C -6,4 °C 45 % 92 % 1033,4 hPa 0,0 l/m² 0,0 km/h (0 Bft) N 360 ° -7,5 °C -6,4 °C
29.11.2016 05:21 22,7 °C -6,4 °C 45 % 92 % 1033,1 hPa 0,0 l/m² 0,0 km/h (0 Bft) N 360 ° -7,5 °C -6,4 °C
29.11.2016 05:25 22,4 °C -6,5 °C 26 % 92 % 1033,0 hPa 0,0 l/m² 0,0 km/h (0 Bft) N 360 ° -7,6 °C -6,5 °C
29.11.2016 05:29 21,9 °C -6,4 °C 29 % 92 % 1033,4 hPa 0,0 l/m² 0,0 km/h (0 Bft) N 360 ° -7,5 °C -6,4 °C
29.11.2016 05:33 21,6 °C -6,4 °C 31 % 92 % 1033,4 hPa 0,0 l/m² 0,0 km/h (0 Bft) N 360 ° -7,5 °C -6,4 °C
29.11.2016 05:37 21,5 °C -6,5 °C 33 % 92 % 1033,4 hPa 0,0 l/m² 0,0 km/h (0 Bft) N 360 ° -7,6 °C -6,5 °C
29.11.2016 05:41 21,4 °C -6,6 °C 34 % 92 % 1033,5 hPa 0,0 l/m² 0,0 km/h (0 Bft) N 360 ° -7,7 °C -6,6 °C
29.11.2016 05:45 21,4 °C -6,6 °C 35 % 92 % 1033,5 hPa 0,0 l/m² 0,0 km/h (0 Bft) N 360 ° -7,7 °C -6,6 °C
29.11.2016 05:49 21,4 °C -6,6 °C 36 % 92 % 1033,5 hPa 0,0 l/m² 0,0 km/h (0 Bft) N 360 ° -7,7 °C -6,6 °C
29.11.2016 05:53 21,4 °C -6,6 °C 37 % 92 % 1033,5 hPa 0,0 l/m² 0,0 km/h (0 Bft) N 360 ° -7,7 °C -6,6 °C
29.11.2016 05:57 21,4 °C -6,6 °C 37 % 92 % 1033,5 hPa 0,0 l/m² 0,0 km/h (0 Bft) N 360 ° -7,7 °C -6,6 °C
29.11.2016 06:01 21,5 °C -6,6 °C 38 % 92 % 1033,5 hPa 0,0 l/m² 0,0 km/h (0 Bft) N 360 ° -7,7 °C -6,6 °C
29.11.2016 06:05 21,5 °C -6,5 °C 38 % 92 % 1033,7 hPa 0,0 l/m² 0,0 km/h (0 Bft) N 360 ° -7,6 °C -6,5 °C
29.11.2016 06:09 21,6 °C -6,5 °C 38 % 92 % 1033,6 hPa 0,0 l/m² 0,0 km/h (0 Bft) N 360 ° -7,6 °C -6,5 °C
29.11.2016 06:13 21,6 °C -6,5 °C 39 % 92 % 1033,7 hPa 0,0 l/m² 0,0 km/h (0 Bft) N 360 ° -7,6 °C -6,5 °C
29.11.2016 06:17 21,6 °C -6,5 °C 39 % 92 % 1033,6 hPa 0,0 l/m² 0,0 km/h (0 Bft) N 360 ° -7,6 °C -6,5 °C
29.11.2016 06:21 21,6 °C -6,6 °C 39 % 92 % 1033,7 hPa 0,0 l/m² 0,0 km/h (0 Bft) N 360 ° -7,7 °C -6,6 °C
29.11.2016 06:25 21,6 °C -6,7 °C 39 % 92 % 1033,6 hPa 0,0 l/m² 0,0 km/h (0 Bft) N 360 ° -7,8 °C -6,7 °C
29.11.2016 06:29 21,6 °C -6,7 °C 39 % 92 % 1033,7 hPa 0,0 l/m² 0,0 km/h (0 Bft) N 360 ° -7,8 °C -6,7 °C
29.11.2016 06:33 21,7 °C -6,7 °C 39 % 92 % 1033,8 hPa 0,0 l/m² 0,0 km/h (0 Bft) N 360 ° -7,8 °C -6,7 °C
29.11.2016 06:37 21,7 °C -6,7 °C 39 % 92 % 1033,7 hPa 0,0 l/m² 0,0 km/h (0 Bft) N 360 ° -7,8 °C -6,7 °C
29.11.2016 06:41 21,7 °C -6,7 °C 39 % 92 % 1033,7 hPa 0,0 l/m² 0,0 km/h (0 Bft) N 360 ° -7,8 °C -6,7 °C
29.11.2016 06:45 21,7 °C -6,7 °C 40 % 92 % 1033,7 hPa 0,0 l/m² 0,0 km/h (0 Bft) N 360 ° -7,8 °C -6,7 °C
29.11.2016 06:49 21,8 °C -6,6 °C 40 % 92 % 1033,7 hPa 0,0 l/m² 0,0 km/h (0 Bft) N 360 ° -7,7 °C -6,6 °C
29.11.2016 06:53 21,8 °C -6,7 °C 40 % 92 % 1033,8 hPa 0,0 l/m² 2,2 km/h (1 Bft) N 360 ° -7,8 °C -6,7 °C
29.11.2016 06:57 21,8 °C -6,6 °C 40 % 92 % 1033,8 hPa 0,0 l/m² 0,0 km/h (0 Bft) N 360 ° -7,7 °C -6,6 °C
29.11.2016 07:01 21,8 °C -6,6 °C 39 % 92 % 1033,9 hPa 0,0 l/m² 0,0 km/h (0 Bft) N 360 ° -7,7 °C -6,6 °C
29.11.2016 07:05 21,8 °C -6,7 °C 39 % 92 % 1033,9 hPa 0,0 l/m² 0,0 km/h (0 Bft) N 360 ° -7,8 °C -6,7 °C
29.11.2016 07:09 21,8 °C -6,7 °C 39 % 92 % 1033,9 hPa 0,0 l/m² 0,0 km/h (0 Bft) N 360 ° -7,8 °C -6,7 °C
29.11.2016 07:13 21,8 °C -6,7 °C 39 % 92 % 1033,9 hPa 0,0 l/m² 0,0 km/h (0 Bft) N 360 ° -7,8 °C -6,7 °C
29.11.2016 07:17 21,8 °C -6,7 °C 39 % 92 % 1033,9 hPa 0,0 l/m² 0,0 km/h (0 Bft) N 360 ° -7,8 °C -6,7 °C
29.11.2016 07:21 21,8 °C -6,7 °C 39 % 92 % 1033,8 hPa 0,0 l/m² 0,0 km/h (0 Bft) N 360 ° -7,8 °C -6,7 °C
29.11.2016 07:25 21,8 °C -6,7 °C 39 % 92 % 1033,7 hPa 0,0 l/m² 0,0 km/h (0 Bft) N 360 ° -7,8 °C -6,7 °C
29.11.2016 07:29 21,8 °C -6,7 °C 39 % 92 % 1033,7 hPa 0,0 l/m² 0,0 km/h (0 Bft) N 360 ° -7,8 °C -6,7 °C
29.11.2016 07:33 21,8 °C -6,7 °C 39 % 92 % 1033,8 hPa 0,0 l/m² 0,0 km/h (0 Bft) N 360 ° -7,8 °C -6,7 °C
29.11.2016 07:37 21,8 °C -6,7 °C 39 % 92 % 1033,8 hPa 0,0 l/m² 0,0 km/h (0 Bft) N 360 ° -7,8 °C -6,7 °C
29.11.2016 07:41 21,9 °C -6,7 °C 39 % 92 % 1034,0 hPa 0,0 l/m² 0,0 km/h (0 Bft) N 360 ° -7,8 °C -6,7 °C
29.11.2016 07:45 21,9 °C -6,7 °C 39 % 92 % 1034,0 hPa 0,0 l/m² 1,8 km/h (1 Bft) N 360 ° -7,8 °C -6,7 °C
29.11.2016 07:49 21,9 °C -6,8 °C 39 % 92 % 1034,0 hPa 0,0 l/m² 0,0 km/h (0 Bft) N 360 ° -7,9 °C -6,8 °C
29.11.2016 07:53 21,9 °C -6,8 °C 39 % 92 % 1034,1 hPa 0,0 l/m² 0,0 km/h (0 Bft) N 360 ° -7,9 °C -6,8 °C
29.11.2016 07:57 21,9 °C -6,7 °C 40 % 92 % 1034,1 hPa 0,0 l/m² 0,0 km/h (0 Bft) N 360 ° -7,8 °C -6,7 °C
29.11.2016 08:01 21,9 °C -6,8 °C 40 % 92 % 1034,3 hPa 0,0 l/m² 0,0 km/h (0 Bft) N 360 ° -7,9 °C -6,8 °C
29.11.2016 08:05 21,9 °C -6,8 °C 40 % 92 % 1034,3 hPa 0,0 l/m² 0,0 km/h (0 Bft) N 360 ° -7,9 °C -6,8 °C
29.11.2016 08:09 21,9 °C -6,9 °C 40 % 92 % 1034,2 hPa 0,0 l/m² 0,0 km/h (0 Bft) N 360 ° -8,0 °C -6,9 °C
29.11.2016 08:13 21,9 °C -6,9 °C 40 % 92 % 1034,3 hPa 0,0 l/m² 0,0 km/h (0 Bft) N 360 ° -8,0 °C -6,9 °C
29.11.2016 08:17 22,0 °C -7,0 °C 40 % 92 % 1034,3 hPa 0,0 l/m² 0,0 km/h (0 Bft) N 360 ° -8,1 °C -7,0 °C
29.11.2016 08:21 22,0 °C -7,1 °C 40 % 92 % 1034,3 hPa 0,0 l/m² 0,0 km/h (0 Bft) N 360 ° -8,2 °C -7,1 °C
29.11.2016 08:25 22,0 °C -7,0 °C 40 % 93 % 1034,3 hPa 0,0 l/m² 0,0 km/h (0 Bft) N 360 ° -7,9 °C -7,0 °C
29.11.2016 08:29 22,0 °C -6,8 °C 40 % 93 % 1034,4 hPa 0,0 l/m² 0,0 km/h (0 Bft) N 360 ° -7,7 °C -6,8 °C
29.11.2016 08:33 22,0 °C -6,6 °C 40 % 93 % 1034,4 hPa 0,0 l/m² 0,0 km/h (0 Bft) N 360 ° -7,5 °C -6,6 °C
29.11.2016 08:37 22,1 °C -6,4 °C 40 % 93 % 1034,3 hPa 0,0 l/m² 0,0 km/h (0 Bft) N 360 ° -7,3 °C -6,4 °C
29.11.2016 08:41 22,3 °C -6,1 °C 40 % 93 % 1034,1 hPa 0,0 l/m² 0,0 km/h (0 Bft) N 360 ° -7,0 °C -6,1 °C
29.11.2016 08:45 22,5 °C -5,9 °C 40 % 93 % 1034,1 hPa 0,0 l/m² 0,0 km/h (0 Bft) N 360 ° -6,8 °C -5,9 °C
29.11.2016 08:49 22,8 °C -5,7 °C 40 % 93 % 1034,0 hPa 0,0 l/m² 0,0 km/h (0 Bft) N 360 ° -6,6 °C -5,7 °C
29.11.2016 08:53 23,0 °C -5,3 °C 39 % 93 % 1034,0 hPa 0,0 l/m² 0,0 km/h (0 Bft) N 360 ° -6,2 °C -5,3 °C
29.11.2016 08:57 23,2 °C -5,0 °C 39 % 93 % 1033,9 hPa 0,0 l/m² 0,0 km/h (0 Bft) N 360 ° -6,0 °C -5,0 °C
29.11.2016 09:01 23,3 °C -4,7 °C 39 % 93 % 1033,9 hPa 0,0 l/m² 0,0 km/h (0 Bft) N 360 ° -5,7 °C -4,7 °C
29.11.2016 09:05 23,2 °C -4,4 °C 39 % 93 % 1033,9 hPa 0,0 l/m² 0,0 km/h (0 Bft) N 360 ° -5,4 °C -4,4 °C
29.11.2016 09:09 23,1 °C -4,2 °C 39 % 93 % 1034,0 hPa 0,0 l/m² 0,0 km/h (0 Bft) N 360 ° -5,2 °C -4,2 °C
29.11.2016 09:13 23,0 °C -3,9 °C 39 % 93 % 1034,0 hPa 0,0 l/m² 0,0 km/h (0 Bft) N 360 ° -4,9 °C -3,9 °C
29.11.2016 09:17 23,0 °C -3,7 °C 39 % 93 % 1034,0 hPa 0,0 l/m² 0,0 km/h (0 Bft) N 360 ° -4,7 °C -3,7 °C
29.11.2016 09:21 23,0 °C -3,6 °C 40 % 93 % 1034,0 hPa 0,0 l/m² 0,0 km/h (0 Bft) N 360 ° -4,6 °C -3,6 °C
29.11.2016 09:25 23,0 °C -3,5 °C 40 % 93 % 1034,0 hPa 0,0 l/m² 0,0 km/h (0 Bft) N 360 ° -4,5 °C -3,5 °C
29.11.2016 09:29 23,0 °C -3,3 °C 40 % 93 % 1034,2 hPa 0,0 l/m² 0,0 km/h (0 Bft) N 360 ° -4,3 °C -3,3 °C
29.11.2016 09:33 22,9 °C -3,1 °C 40 % 93 % 1034,3 hPa 0,0 l/m² 0,0 km/h (0 Bft) N 360 ° -4,1 °C -3,1 °C
29.11.2016 09:37 23,0 °C -3,1 °C 40 % 93 % 1034,2 hPa 0,0 l/m² 0,0 km/h (0 Bft) N 360 ° -4,1 °C -3,1 °C
29.11.2016 09:41 23,0 °C -3,0 °C 40 % 93 % 1034,2 hPa 0,0 l/m² 0,0 km/h (0 Bft) N 360 ° -4,0 °C -3,0 °C
29.11.2016 09:45 23,0 °C -2,8 °C 40 % 93 % 1034,3 hPa 0,0 l/m² 0,0 km/h (0 Bft) N 360 ° -3,8 °C -2,8 °C
29.11.2016 09:49 23,0 °C -2,7 °C 40 % 93 % 1034,3 hPa 0,0 l/m² 2,2 km/h (1 Bft) N 360 ° -3,7 °C -2,7 °C
29.11.2016 09:53 23,0 °C -2,5 °C 40 % 93 % 1034,3 hPa 0,0 l/m² 2,9 km/h (1 Bft) SW 225 ° -3,5 °C -2,5 °C
29.11.2016 09:57 23,0 °C -2,4 °C 40 % 93 % 1034,3 hPa 0,0 l/m² 0,0 km/h (0 Bft) SW 225 ° -3,4 °C -2,4 °C
29.11.2016 10:01 23,0 °C -2,2 °C 40 % 93 % 1034,2 hPa 0,0 l/m² 3,2 km/h (1 Bft) SW 225 ° -3,2 °C -2,2 °C
29.11.2016 10:05 23,0 °C -2,1 °C 40 % 93 % 1034,4 hPa 0,0 l/m² 2,5 km/h (1 Bft) S-SW 202 ° -3,1 °C -2,1 °C
29.11.2016 10:09 23,1 °C -1,9 °C 40 % 93 % 1034,3 hPa 0,0 l/m² 5,8 km/h (2 Bft) S-SW 202 ° -2,9 °C -1,9 °C
29.11.2016 10:13 23,1 °C -1,8 °C 40 % 93 % 1034,3 hPa 0,0 l/m² 2,5 km/h (1 Bft) S-SW 202 ° -2,8 °C -1,8 °C
29.11.2016 10:17 23,1 °C -1,6 °C 40 % 93 % 1034,3 hPa 0,0 l/m² 6,8 km/h (2 Bft) S-SW 202 ° -2,6 °C -2,0 °C
29.11.2016 10:21 23,1 °C -1,6 °C 40 % 93 % 1034,3 hPa 0,0 l/m² 3,2 km/h (1 Bft) S-SW 202 ° -2,6 °C -1,6 °C
29.11.2016 10:25 23,2 °C -1,4 °C 40 % 93 % 1034,5 hPa 0,0 l/m² 4,7 km/h (1 Bft) S-SW 202 ° -2,4 °C -1,4 °C
29.11.2016 10:29 23,2 °C -1,2 °C 40 % 93 % 1034,4 hPa 0,0 l/m² 6,1 km/h (2 Bft) S-SW 202 ° -2,2 °C -1,2 °C
29.11.2016 10:33 23,2 °C -1,1 °C 40 % 93 % 1034,3 hPa 0,0 l/m² 5,4 km/h (2 Bft) S-SW 202 ° -2,1 °C -1,1 °C
29.11.2016 10:37 23,2 °C -1,0 °C 40 % 93 % 1034,2 hPa 0,0 l/m² 2,9 km/h (1 Bft) S-SW 202 ° -2,0 °C -1,0 °C
29.11.2016 10:41 23,3 °C -0,8 °C 40 % 93 % 1034,4 hPa 0,0 l/m² 3,2 km/h (1 Bft) S-SW 202 ° -1,8 °C -0,8 °C
29.11.2016 10:45 23,3 °C -0,7 °C 40 % 93 % 1034,6 hPa 0,0 l/m² 5,0 km/h (1 Bft) S-SW 202 ° -1,7 °C -0,7 °C
29.11.2016 10:49 23,4 °C -0,7 °C 40 % 93 % 1034,5 hPa 0,0 l/m² 3,6 km/h (1 Bft) S-SW 202 ° -1,7 °C -0,7 °C
29.11.2016 10:53 23,4 °C -0,6 °C 40 % 93 % 1034,4 hPa 0,0 l/m² 0,0 km/h (0 Bft) S-SW 202 ° -1,6 °C -0,6 °C
29.11.2016 10:57 23,4 °C -0,4 °C 41 % 93 % 1034,5 hPa 0,0 l/m² 4,0 km/h (1 Bft) S-SW 202 ° -1,4 °C -0,4 °C
29.11.2016 11:01 23,4 °C -0,2 °C 41 % 93 % 1034,5 hPa 0,0 l/m² 1,8 km/h (1 Bft) S-SW 202 ° -1,2 °C -0,2 °C
29.11.2016 11:05 23,4 °C -0,1 °C 41 % 93 % 1034,3 hPa 0,0 l/m² 2,9 km/h (1 Bft) S-SW 202 ° -1,1 °C -0,1 °C
29.11.2016 11:09 23,5 °C 0,2 °C 41 % 93 % 1034,3 hPa 0,0 l/m² 4,3 km/h (1 Bft) S-SW 202 ° -0,8 °C 0,2 °C
29.11.2016 11:13 23,5 °C 0,3 °C 41 % 93 % 1034,4 hPa 0,0 l/m² 4,0 km/h (1 Bft) S 180 ° -0,7 °C 0,3 °C
29.11.2016 11:17 23,5 °C 0,4 °C 41 % 93 % 1034,4 hPa 0,0 l/m² 5,0 km/h (1 Bft) S 180 ° -0,6 °C 0,4 °C
29.11.2016 11:21 23,5 °C 0,4 °C 41 % 93 % 1034,3 hPa 0,0 l/m² 4,7 km/h (1 Bft) SW 225 ° -0,6 °C 0,4 °C
29.11.2016 11:25 23,6 °C 0,6 °C 41 % 93 % 1034,2 hPa 0,0 l/m² 3,2 km/h (1 Bft) S 180 ° -0,4 °C 0,6 °C
29.11.2016 11:29 23,6 °C 0,7 °C 41 % 93 % 1034,3 hPa 0,0 l/m² 6,5 km/h (2 Bft) S 180 ° -0,3 °C 0,6 °C
29.11.2016 11:33 23,6 °C 0,8 °C 41 % 92 % 1034,2 hPa 0,0 l/m² 7,2 km/h (2 Bft) S-SW 202 ° -0,3 °C -0,0 °C
29.11.2016 11:37 23,6 °C 0,9 °C 41 % 92 % 1034,1 hPa 0,0 l/m² 6,5 km/h (2 Bft) W-SW 247 ° -0,2 °C 0,8 °C
29.11.2016 11:41 23,7 °C 0,9 °C 41 % 92 % 1034,1 hPa 0,0 l/m² 5,4 km/h (2 Bft) S-SW 202 ° -0,2 °C 0,9 °C
29.11.2016 11:45 23,7 °C 0,9 °C 41 % 92 % 1034,1 hPa 0,0 l/m² 5,8 km/h (2 Bft) S 180 ° -0,2 °C 0,9 °C
29.11.2016 11:49 23,7 °C 1,1 °C 41 % 92 % 1034,0 hPa 0,0 l/m² 5,0 km/h (1 Bft) S 180 ° -0,1 °C 1,1 °C
29.11.2016 11:53 23,7 °C 1,1 °C 41 % 92 % 1034,2 hPa 0,0 l/m² 11,2 km/h (2 Bft) S 180 ° -0,1 °C -3,2 °C
29.11.2016 11:57 23,7 °C 1,2 °C 41 % 91 % 1034,2 hPa 0,0 l/m² 10,1 km/h (2 Bft) S-SW 202 ° -0,1 °C -2,2 °C
29.11.2016 12:01 23,8 °C 1,3 °C 41 % 91 % 1034,1 hPa 0,0 l/m² 9,0 km/h (2 Bft) S-SW 202 ° -0,0 °C -1,2 °C
29.11.2016 12:05 23,8 °C 1,3 °C 41 % 91 % 1034,0 hPa 0,0 l/m² 5,8 km/h (2 Bft) S 180 ° -0,0 °C 1,3 °C
29.11.2016 12:09 23,8 °C 1,4 °C 41 % 91 % 1034,0 hPa 0,0 l/m² 7,9 km/h (2 Bft) S-SW 202 ° 0,1 °C -0,1 °C
29.11.2016 12:13 23,8 °C 1,5 °C 41 % 91 % 1034,0 hPa 0,0 l/m² 7,2 km/h (2 Bft) S 180 ° 0,2 °C 0,7 °C
29.11.2016 12:17 23,8 °C 1,6 °C 41 % 91 % 1033,9 hPa 0,0 l/m² 6,8 km/h (2 Bft) S-SW 202 ° 0,3 °C 1,2 °C
29.11.2016 12:21 23,8 °C 1,6 °C 41 % 91 % 1033,9 hPa 0,0 l/m² 5,8 km/h (2 Bft) S-SW 202 ° 0,3 °C 1,6 °C
29.11.2016 12:25 23,8 °C 1,8 °C 41 % 91 % 1033,9 hPa 0,0 l/m² 5,8 km/h (2 Bft) S 180 ° 0,5 °C 1,8 °C
29.11.2016 12:29 23,8 °C 1,9 °C 41 % 90 % 1033,9 hPa 0,0 l/m² 6,8 km/h (2 Bft) S-SW 202 ° 0,4 °C 1,5 °C
29.11.2016 12:33 23,8 °C 1,9 °C 41 % 90 % 1033,9 hPa 0,0 l/m² 4,3 km/h (1 Bft) S 180 ° 0,4 °C 1,9 °C
29.11.2016 12:37 23,8 °C 1,9 °C 41 % 90 % 1033,9 hPa 0,0 l/m² 3,6 km/h (1 Bft) SW 225 ° 0,4 °C 1,9 °C
29.11.2016 12:41 23,8 °C 2,1 °C 41 % 90 % 1033,7 hPa 0,0 l/m² 5,8 km/h (2 Bft) S-SW 202 ° 0,6 °C 2,1 °C
29.11.2016 12:45 23,8 °C 2,1 °C 41 % 89 % 1033,7 hPa 0,0 l/m² 6,8 km/h (2 Bft) S-SW 202 ° 0,5 °C 1,7 °C
29.11.2016 12:49 23,9 °C 2,1 °C 41 % 89 % 1033,7 hPa 0,0 l/m² 6,1 km/h (2 Bft) SW 225 ° 0,5 °C 2,1 °C
29.11.2016 12:53 23,9 °C 2,2 °C 41 % 89 % 1033,7 hPa 0,0 l/m² 4,7 km/h (1 Bft) S 180 ° 0,6 °C 2,2 °C
29.11.2016 12:57 23,9 °C 2,3 °C 41 % 88 % 1033,6 hPa 0,0 l/m² 6,5 km/h (2 Bft) S 180 ° 0,5 °C 2,2 °C
29.11.2016 13:01 23,9 °C 2,3 °C 41 % 88 % 1033,5 hPa 0,0 l/m² 0,0 km/h (0 Bft) W 270 ° 0,5 °C 2,3 °C
29.11.2016 13:05 23,9 °C 2,4 °C 41 % 88 % 1033,5 hPa 0,0 l/m² 5,0 km/h (1 Bft) S-SW 202 ° 0,6 °C 2,4 °C
29.11.2016 13:09 24,0 °C 2,4 °C 41 % 88 % 1033,6 hPa 0,0 l/m² 4,0 km/h (1 Bft) W-SW 247 ° 0,6 °C 2,4 °C
29.11.2016 13:13 24,0 °C 2,6 °C 41 % 87 % 1033,5 hPa 0,0 l/m² 6,1 km/h (2 Bft) SW 225 ° 0,7 °C 2,6 °C
29.11.2016 13:17 24,0 °C 2,6 °C 41 % 87 % 1033,5 hPa 0,0 l/m² 5,4 km/h (2 Bft) S-SW 202 ° 0,7 °C 2,6 °C
29.11.2016 13:21 24,0 °C 2,5 °C 41 % 87 % 1033,3 hPa 0,0 l/m² 7,2 km/h (2 Bft) SW 225 ° 0,6 °C 1,7 °C
29.11.2016 13:25 24,0 °C 2,5 °C 41 % 86 % 1033,4 hPa 0,0 l/m² 0,0 km/h (0 Bft) S-SW 202 ° 0,4 °C 2,5 °C
29.11.2016 13:29 24,0 °C 2,6 °C 41 % 86 % 1033,3 hPa 0,0 l/m² 4,0 km/h (1 Bft) SW 225 ° 0,5 °C 2,6 °C
29.11.2016 13:33 24,0 °C 2,7 °C 41 % 86 % 1033,3 hPa 0,0 l/m² 0,0 km/h (0 Bft) W-SW 247 ° 0,6 °C 2,7 °C
29.11.2016 13:37 24,0 °C 2,7 °C 41 % 86 % 1033,3 hPa 0,0 l/m² 4,0 km/h (1 Bft) S-SW 202 ° 0,6 °C 2,7 °C
29.11.2016 13:41 24,0 °C 2,8 °C 41 % 85 % 1033,3 hPa 0,0 l/m² 3,2 km/h (1 Bft) S-SW 202 ° 0,5 °C 2,8 °C
29.11.2016 13:45 24,1 °C 2,7 °C 41 % 85 % 1033,4 hPa 0,0 l/m² 4,7 km/h (1 Bft) S-SW 202 ° 0,4 °C 2,7 °C
29.11.2016 13:49 24,1 °C 2,7 °C 41 % 85 % 1033,3 hPa 0,0 l/m² 8,3 km/h (2 Bft) S-SW 202 ° 0,4 °C 0,9 °C
29.11.2016 13:53 24,1 °C 2,7 °C 41 % 85 % 1033,3 hPa 0,0 l/m² 6,5 km/h (2 Bft) S-SW 202 ° 0,4 °C 2,6 °C
29.11.2016 13:57 24,1 °C 2,6 °C 41 % 85 % 1033,4 hPa 0,0 l/m² 5,8 km/h (2 Bft) SW 225 ° 0,3 °C 2,6 °C
29.11.2016 14:01 24,1 °C 2,7 °C 41 % 84 % 1033,3 hPa 0,0 l/m² 2,5 km/h (1 Bft) SW 225 ° 0,3 °C 2,7 °C
29.11.2016 14:05 24,1 °C 2,8 °C 41 % 84 % 1033,2 hPa 0,0 l/m² 5,8 km/h (2 Bft) S 180 ° 0,4 °C 2,8 °C
29.11.2016 14:09 24,1 °C 2,7 °C 41 % 84 % 1033,1 hPa 0,0 l/m² 9,4 km/h (2 Bft) S-SW 202 ° 0,3 °C 0,0 °C
29.11.2016 14:13 24,1 °C 2,7 °C 41 % 84 % 1033,0 hPa 0,0 l/m² 7,6 km/h (2 Bft) S-SW 202 ° 0,3 °C 1,6 °C
29.11.2016 14:17 24,1 °C 2,7 °C 41 % 84 % 1033,1 hPa 0,0 l/m² 8,3 km/h (2 Bft) S 180 ° 0,3 °C 0,9 °C
29.11.2016 14:21 24,1 °C 2,7 °C 41 % 84 % 1033,0 hPa 0,0 l/m² 6,1 km/h (2 Bft) S 180 ° 0,3 °C 2,7 °C
29.11.2016 14:25 24,1 °C 2,7 °C 41 % 83 % 1033,0 hPa 0,0 l/m² 7,6 km/h (2 Bft) S-SW 202 ° 0,1 °C 1,6 °C
29.11.2016 14:29 24,1 °C 2,6 °C 41 % 83 % 1033,1 hPa 0,0 l/m² 6,5 km/h (2 Bft) S 180 ° 0,0 °C 2,5 °C
29.11.2016 14:33 24,1 °C 2,5 °C 42 % 83 % 1033,0 hPa 0,0 l/m² 10,1 km/h (2 Bft) S-SW 202 ° -0,1 °C -0,8 °C
29.11.2016 14:37 24,1 °C 2,5 °C 42 % 83 % 1033,1 hPa 0,0 l/m² 7,2 km/h (2 Bft) S 180 ° -0,1 °C 1,7 °C
29.11.2016 14:41 24,1 °C 2,5 °C 42 % 83 % 1033,0 hPa 0,0 l/m² 6,1 km/h (2 Bft) S 180 ° -0,1 °C 2,5 °C
29.11.2016 14:45 24,1 °C 2,4 °C 41 % 83 % 1033,1 hPa 0,0 l/m² 7,6 km/h (2 Bft) S 180 ° -0,2 °C 1,2 °C
29.11.2016 14:49 24,0 °C 2,4 °C 42 % 83 % 1033,2 hPa 0,0 l/m² 9,0 km/h (2 Bft) S 180 ° -0,2 °C 0,0 °C
29.11.2016 14:53 24,0 °C 2,3 °C 42 % 83 % 1033,0 hPa 0,0 l/m² 7,9 km/h (2 Bft) S 180 ° -0,3 °C 0,9 °C
29.11.2016 14:57 24,0 °C 2,3 °C 42 % 83 % 1033,0 hPa 0,0 l/m² 9,4 km/h (2 Bft) S-SW 202 ° -0,3 °C -0,4 °C
29.11.2016 15:01 24,0 °C 2,2 °C 42 % 83 % 1033,0 hPa 0,0 l/m² 6,1 km/h (2 Bft) S 180 ° -0,4 °C 2,2 °C
29.11.2016 15:05 24,0 °C 2,1 °C 42 % 83 % 1033,0 hPa 0,0 l/m² 8,3 km/h (2 Bft) S 180 ° -0,5 °C 0,3 °C
29.11.2016 15:09 24,0 °C 2,1 °C 42 % 83 % 1033,1 hPa 0,0 l/m² 5,8 km/h (2 Bft) S-SW 202 ° -0,5 °C 2,1 °C
29.11.2016 15:13 24,0 °C 1,9 °C 42 % 83 % 1033,2 hPa 0,0 l/m² 9,0 km/h (2 Bft) S-SW 202 ° -0,7 °C -0,5 °C
29.11.2016 15:17 24,0 °C 1,9 °C 42 % 83 % 1033,2 hPa 0,0 l/m² 6,5 km/h (2 Bft) S-SW 202 ° -0,7 °C 1,8 °C
29.11.2016 15:21 23,9 °C 1,8 °C 42 % 83 % 1033,0 hPa 0,0 l/m² 7,2 km/h (2 Bft) S-SW 202 ° -0,8 °C 1,0 °C
29.11.2016 15:25 24,0 °C 1,6 °C 42 % 83 % 1033,0 hPa 0,0 l/m² 8,3 km/h (2 Bft) S-SW 202 ° -1,0 °C -0,2 °C
29.11.2016 15:29 23,9 °C 1,5 °C 42 % 83 % 1033,1 hPa 0,0 l/m² 9,4 km/h (2 Bft) S-SW 202 ° -1,1 °C -1,3 °C
29.11.2016 15:33 23,9 °C 1,4 °C 42 % 83 % 1033,0 hPa 0,0 l/m² 5,8 km/h (2 Bft) S 180 ° -1,2 °C 1,4 °C
29.11.2016 15:37 23,9 °C 1,3 °C 42 % 83 % 1033,1 hPa 0,0 l/m² 5,8 km/h (2 Bft) S 180 ° -1,3 °C 1,3 °C
29.11.2016 15:41 23,9 °C 1,1 °C 42 % 83 % 1032,8 hPa 0,0 l/m² 7,2 km/h (2 Bft) S-SW 202 ° -1,5 °C 0,3 °C
29.11.2016 15:45 23,8 °C 0,9 °C 42 % 84 % 1032,8 hPa 0,0 l/m² 7,6 km/h (2 Bft) S-SW 202 ° -1,5 °C -0,3 °C
29.11.2016 15:49 23,8 °C 0,8 °C 42 % 84 % 1032,9 hPa 0,0 l/m² 5,4 km/h (2 Bft) S-SW 202 ° -1,6 °C 0,8 °C
29.11.2016 15:53 23,8 °C 0,7 °C 42 % 84 % 1032,9 hPa 0,0 l/m² 6,1 km/h (2 Bft) S-SW 202 ° -1,7 °C 0,7 °C
29.11.2016 15:57 23,8 °C 0,5 °C 42 % 84 % 1032,8 hPa 0,0 l/m² 7,2 km/h (2 Bft) S-SW 202 ° -1,9 °C -0,3 °C
29.11.2016 16:01 23,8 °C 0,3 °C 42 % 84 % 1032,7 hPa 0,0 l/m² 6,5 km/h (2 Bft) S-SW 202 ° -2,1 °C 0,2 °C
29.11.2016 16:05 23,8 °C 0,1 °C 42 % 84 % 1032,8 hPa 0,0 l/m² 6,1 km/h (2 Bft) SW 225 ° -2,3 °C 0,1 °C
29.11.2016 16:09 23,8 °C -0,1 °C 42 % 85 % 1032,8 hPa 0,0 l/m² 6,8 km/h (2 Bft) SW 225 ° -2,3 °C -0,5 °C
29.11.2016 16:13 23,7 °C -0,2 °C 42 % 85 % 1032,9 hPa 0,0 l/m² 5,0 km/h (1 Bft) S-SW 202 ° -2,4 °C -0,2 °C
29.11.2016 16:17 23,7 °C -0,4 °C 42 % 85 % 1032,9 hPa 0,0 l/m² 5,8 km/h (2 Bft) S-SW 202 ° -2,6 °C -0,4 °C
29.11.2016 16:21 23,7 °C -0,5 °C 42 % 85 % 1032,9 hPa 0,0 l/m² 6,5 km/h (2 Bft) SW 225 ° -2,7 °C -0,6 °C
29.11.2016 16:25 23,7 °C -0,6 °C 42 % 86 % 1032,8 hPa 0,0 l/m² 7,9 km/h (2 Bft) SW 225 ° -2,6 °C -2,2 °C
29.11.2016 16:29 23,7 °C -0,7 °C 42 % 86 % 1032,7 hPa 0,0 l/m² 7,2 km/h (2 Bft) SW 225 ° -2,7 °C -1,6 °C
29.11.2016 16:33 23,6 °C -0,7 °C 42 % 86 % 1032,8 hPa 0,0 l/m² 7,2 km/h (2 Bft) SW 225 ° -2,7 °C -1,6 °C
29.11.2016 16:37 23,6 °C -0,7 °C 42 % 86 % 1032,8 hPa 0,0 l/m² 5,8 km/h (2 Bft) SW 225 ° -2,7 °C -0,7 °C
29.11.2016 16:41 23,6 °C -0,7 °C 41 % 86 % 1032,7 hPa 0,0 l/m² 4,7 km/h (1 Bft) SW 225 ° -2,7 °C -0,7 °C
29.11.2016 16:45 23,6 °C -0,7 °C 41 % 86 % 1032,8 hPa 0,0 l/m² 4,3 km/h (1 Bft) SW 225 ° -2,7 °C -0,7 °C
29.11.2016 16:49 23,6 °C -0,7 °C 41 % 86 % 1032,9 hPa 0,0 l/m² 4,7 km/h (1 Bft) SW 225 ° -2,7 °C -0,7 °C
29.11.2016 16:53 23,6 °C -0,7 °C 40 % 86 % 1032,8 hPa 0,0 l/m² 5,8 km/h (2 Bft) SW 225 ° -2,7 °C -0,7 °C
29.11.2016 16:57 23,5 °C -0,7 °C 40 % 86 % 1032,8 hPa 0,0 l/m² 4,3 km/h (1 Bft) SW 225 ° -2,7 °C -0,7 °C
29.11.2016 17:01 23,5 °C -0,8 °C 40 % 86 % 1032,7 hPa 0,0 l/m² 3,2 km/h (1 Bft) SW 225 ° -2,8 °C -0,8 °C
29.11.2016 17:05 23,5 °C -0,9 °C 40 % 86 % 1032,8 hPa 0,0 l/m² 3,6 km/h (1 Bft) SW 225 ° -2,9 °C -0,9 °C
29.11.2016 17:09 23,4 °C -1,0 °C 40 % 86 % 1032,7 hPa 0,0 l/m² 5,8 km/h (2 Bft) W-SW 247 ° -3,0 °C -1,0 °C
29.11.2016 17:13 23,4 °C -1,1 °C 40 % 86 % 1032,6 hPa 0,0 l/m² 4,7 km/h (1 Bft) W-SW 247 ° -3,1 °C -1,1 °C
29.11.2016 17:17 23,4 °C -1,1 °C 40 % 86 % 1032,7 hPa 0,0 l/m² 4,0 km/h (1 Bft) W-SW 247 ° -3,1 °C -1,1 °C
29.11.2016 17:21 23,4 °C -1,1 °C 41 % 86 % 1032,7 hPa 0,0 l/m² 2,2 km/h (1 Bft) W-SW 247 ° -3,1 °C -1,1 °C
29.11.2016 17:25 23,4 °C -1,2 °C 41 % 86 % 1032,8 hPa 0,0 l/m² 2,5 km/h (1 Bft) W-SW 247 ° -3,2 °C -1,2 °C
29.11.2016 17:29 23,4 °C -1,3 °C 41 % 86 % 1032,8 hPa 0,0 l/m² 4,0 km/h (1 Bft) W-SW 247 ° -3,3 °C -1,3 °C
29.11.2016 17:33 23,4 °C -1,3 °C 41 % 86 % 1032,5 hPa 0,0 l/m² 3,2 km/h (1 Bft) W-SW 247 ° -3,3 °C -1,3 °C
29.11.2016 17:37 23,3 °C -1,3 °C 41 % 86 % 1032,6 hPa 0,0 l/m² 4,0 km/h (1 Bft) W-SW 247 ° -3,3 °C -1,3 °C
29.11.2016 17:41 23,3 °C -1,4 °C 41 % 86 % 1032,7 hPa 0,0 l/m² 4,7 km/h (1 Bft) SW 225 ° -3,4 °C -1,4 °C
29.11.2016 17:45 23,3 °C -1,4 °C 41 % 86 % 1032,7 hPa 0,0 l/m² 4,7 km/h (1 Bft) SW 225 ° -3,4 °C -1,4 °C
29.11.2016 17:49 23,3 °C -1,4 °C 41 % 86 % 1032,6 hPa 0,0 l/m² 2,5 km/h (1 Bft) SW 225 ° -3,4 °C -1,4 °C
29.11.2016 17:53 23,3 °C -1,5 °C 41 % 87 % 1032,8 hPa 0,0 l/m² 0,0 km/h (0 Bft) SW 225 ° -3,4 °C -1,5 °C
29.11.2016 17:57 23,3 °C -1,5 °C 41 % 87 % 1032,7 hPa 0,0 l/m² 0,0 km/h (0 Bft) SW 225 ° -3,4 °C -1,5 °C
29.11.2016 18:01 23,3 °C -1,6 °C 41 % 87 % 1032,6 hPa 0,0 l/m² 0,0 km/h (0 Bft) SW 225 ° -3,5 °C -1,6 °C
29.11.2016 18:05 23,2 °C -1,7 °C 41 % 87 % 1032,7 hPa 0,0 l/m² 0,0 km/h (0 Bft) SW 225 ° -3,6 °C -1,7 °C
29.11.2016 18:09 23,2 °C -1,8 °C 41 % 87 % 1032,7 hPa 0,0 l/m² 0,0 km/h (0 Bft) SW 225 ° -3,7 °C -1,8 °C
29.11.2016 18:13 23,2 °C -1,9 °C 41 % 87 % 1032,6 hPa 0,0 l/m² 0,0 km/h (0 Bft) SW 225 ° -3,8 °C -1,9 °C
29.11.2016 18:17 23,2 °C -1,9 °C 41 % 87 % 1032,8 hPa 0,0 l/m² 1,8 km/h (1 Bft) SW 225 ° -3,8 °C -1,9 °C
29.11.2016 18:21 23,2 °C -2,1 °C 40 % 87 % 1032,8 hPa 0,0 l/m² 0,0 km/h (0 Bft) SO 135 ° -4,0 °C -2,1 °C
29.11.2016 18:25 23,2 °C -2,1 °C 40 % 87 % 1032,8 hPa 0,0 l/m² 0,0 km/h (0 Bft) SO 135 ° -4,0 °C -2,1 °C
29.11.2016 18:29 23,2 °C -2,1 °C 40 % 87 % 1032,8 hPa 0,0 l/m² 2,5 km/h (1 Bft) SO 135 ° -4,0 °C -2,1 °C
29.11.2016 18:33 23,2 °C -2,2 °C 40 % 87 % 1032,7 hPa 0,0 l/m² 0,0 km/h (0 Bft) SO 135 ° -4,1 °C -2,2 °C
29.11.2016 18:37 23,1 °C -2,2 °C 40 % 87 % 1032,5 hPa 0,0 l/m² 3,2 km/h (1 Bft) SO 135 ° -4,1 °C -2,2 °C
29.11.2016 18:41 23,1 °C -2,4 °C 40 % 87 % 1032,6 hPa 0,0 l/m² 0,0 km/h (0 Bft) SO 135 ° -4,3 °C -2,4 °C
29.11.2016 18:45 23,1 °C -2,5 °C 41 % 88 % 1032,6 hPa 0,0 l/m² 0,0 km/h (0 Bft) SO 135 ° -4,2 °C -2,5 °C
29.11.2016 18:49 23,1 °C -2,6 °C 41 % 87 % 1032,6 hPa 0,0 l/m² 0,0 km/h (0 Bft) SO 135 ° -4,5 °C -2,6 °C
29.11.2016 18:53 23,1 °C -2,7 °C 41 % 88 % 1032,5 hPa 0,0 l/m² 0,0 km/h (0 Bft) SO 135 ° -4,4 °C -2,7 °C
29.11.2016 18:57 23,1 °C -2,7 °C 41 % 88 % 1032,5 hPa 0,0 l/m² 0,0 km/h (0 Bft) SO 135 ° -4,4 °C -2,7 °C
29.11.2016 19:01 23,1 °C -2,8 °C 41 % 88 % 1032,4 hPa 0,0 l/m² 0,0 km/h (0 Bft) SO 135 ° -4,5 °C -2,8 °C
29.11.2016 19:05 23,1 °C -2,9 °C 42 % 88 % 1032,4 hPa 0,0 l/m² 0,0 km/h (0 Bft) SO 135 ° -4,6 °C -2,9 °C
29.11.2016 19:09 23,1 °C -3,1 °C 42 % 88 % 1032,6 hPa 0,0 l/m² 0,0 km/h (0 Bft) SO 135 ° -4,8 °C -3,1 °C
29.11.2016 19:13 23,1 °C -3,2 °C 42 % 88 % 1032,6 hPa 0,0 l/m² 0,0 km/h (0 Bft) SO 135 ° -4,9 °C -3,2 °C
29.11.2016 19:17 23,1 °C -3,3 °C 42 % 88 % 1032,6 hPa 0,0 l/m² 0,0 km/h (0 Bft) SO 135 ° -5,0 °C -3,3 °C
29.11.2016 19:21 23,1 °C -3,4 °C 42 % 88 % 1032,6 hPa 0,0 l/m² 0,0 km/h (0 Bft) SO 135 ° -5,1 °C -3,4 °C
29.11.2016 19:25 23,1 °C -3,5 °C 42 % 88 % 1032,6 hPa 0,0 l/m² 0,0 km/h (0 Bft) SO 135 ° -5,2 °C -3,5 °C
29.11.2016 19:29 23,1 °C -3,6 °C 42 % 88 % 1032,5 hPa 0,0 l/m² 0,0 km/h (0 Bft) SO 135 ° -5,3 °C -3,6 °C
29.11.2016 19:33 23,1 °C -3,8 °C 42 % 88 % 1032,6 hPa 0,0 l/m² 0,0 km/h (0 Bft) SO 135 ° -5,5 °C -3,8 °C
29.11.2016 19:37 23,1 °C -3,9 °C 42 % 89 % 1032,6 hPa 0,0 l/m² 0,0 km/h (0 Bft) SO 135 ° -5,4 °C -3,9 °C
29.11.2016 19:41 23,1 °C -4,0 °C 42 % 89 % 1032,5 hPa 0,0 l/m² 0,0 km/h (0 Bft) SO 135 ° -5,5 °C -4,0 °C
29.11.2016 19:45 23,1 °C -4,2 °C 42 % 89 % 1032,6 hPa 0,0 l/m² 0,0 km/h (0 Bft) SO 135 ° -5,7 °C -4,2 °C
29.11.2016 19:49 23,1 °C -4,2 °C 42 % 89 % 1032,5 hPa 0,0 l/m² 0,0 km/h (0 Bft) SO 135 ° -5,7 °C -4,2 °C
29.11.2016 19:53 23,1 °C -4,4 °C 42 % 89 % 1032,5 hPa 0,0 l/m² 0,0 km/h (0 Bft) SO 135 ° -5,9 °C -4,4 °C
29.11.2016 19:57 23,1 °C -4,4 °C 42 % 89 % 1032,6 hPa 0,0 l/m² 0,0 km/h (0 Bft) SO 135 ° -5,9 °C -4,4 °C
29.11.2016 20:01 23,1 °C -4,4 °C 42 % 89 % 1032,7 hPa 0,0 l/m² 0,0 km/h (0 Bft) SO 135 ° -5,9 °C -4,4 °C
29.11.2016 20:05 23,1 °C -4,5 °C 42 % 89 % 1032,6 hPa 0,0 l/m² 0,0 km/h (0 Bft) SO 135 ° -6,0 °C -4,5 °C
29.11.2016 20:09 23,0 °C -4,6 °C 30 % 89 % 1032,5 hPa 0,0 l/m² 0,0 km/h (0 Bft) SO 135 ° -6,1 °C -4,6 °C
29.11.2016 20:13 22,5 °C -4,7 °C 25 % 89 % 1032,7 hPa 0,0 l/m² 0,0 km/h (0 Bft) SO 135 ° -6,2 °C -4,7 °C
29.11.2016 20:17 22,1 °C -4,7 °C 29 % 90 % 1032,8 hPa 0,0 l/m² 1,4 km/h (1 Bft) SO 135 ° -6,1 °C -4,7 °C
29.11.2016 20:21 21,9 °C -4,8 °C 31 % 90 % 1032,8 hPa 0,0 l/m² 0,0 km/h (0 Bft) SO 135 ° -6,2 °C -4,8 °C
29.11.2016 20:25 21,8 °C -4,9 °C 33 % 90 % 1032,7 hPa 0,0 l/m² 0,0 km/h (0 Bft) SO 135 ° -6,3 °C -4,9 °C
29.11.2016 20:29 21,8 °C -5,1 °C 34 % 90 % 1032,8 hPa 0,0 l/m² 0,0 km/h (0 Bft) SO 135 ° -6,5 °C -5,1 °C
29.11.2016 20:33 21,8 °C -5,1 °C 34 % 90 % 1032,8 hPa 0,0 l/m² 0,0 km/h (0 Bft) SO 135 ° -6,5 °C -5,1 °C
29.11.2016 20:37 21,8 °C -5,1 °C 35 % 90 % 1032,8 hPa 0,0 l/m² 0,0 km/h (0 Bft) SO 135 ° -6,5 °C -5,1 °C
29.11.2016 20:41 21,8 °C -5,1 °C 36 % 90 % 1032,6 hPa 0,0 l/m² 2,5 km/h (1 Bft) SO 135 ° -6,5 °C -5,1 °C
29.11.2016 20:45 21,9 °C -5,2 °C 37 % 90 % 1032,7 hPa 0,0 l/m² 3,2 km/h (1 Bft) SO 135 ° -6,6 °C -5,2 °C
29.11.2016 20:49 21,9 °C -5,2 °C 37 % 90 % 1032,5 hPa 0,0 l/m² 2,5 km/h (1 Bft) SO 135 ° -6,6 °C -5,2 °C
29.11.2016 20:53 22,0 °C -5,2 °C 37 % 90 % 1032,5 hPa 0,0 l/m² 0,0 km/h (0 Bft) SO 135 ° -6,6 °C -5,2 °C
29.11.2016 20:57 22,0 °C -5,3 °C 37 % 90 % 1032,7 hPa 0,0 l/m² 0,0 km/h (0 Bft) SO 135 ° -6,7 °C -5,3 °C
29.11.2016 21:01 22,0 °C -5,4 °C 38 % 90 % 1032,5 hPa 0,0 l/m² 0,0 km/h (0 Bft) SO 135 ° -6,8 °C -5,4 °C
29.11.2016 21:05 22,0 °C -5,4 °C 38 % 90 % 1032,5 hPa 0,0 l/m² 0,0 km/h (0 Bft) SO 135 ° -6,8 °C -5,4 °C
29.11.2016 21:09 22,1 °C -5,5 °C 38 % 90 % 1032,5 hPa 0,0 l/m² 0,0 km/h (0 Bft) SO 135 ° -6,9 °C -5,5 °C
29.11.2016 21:13 22,1 °C -5,6 °C 38 % 90 % 1032,5 hPa 0,0 l/m² 0,0 km/h (0 Bft) SO 135 ° -7,0 °C -5,6 °C
29.11.2016 21:17 22,1 °C -5,6 °C 38 % 90 % 1032,5 hPa 0,0 l/m² 0,0 km/h (0 Bft) SO 135 ° -7,0 °C -5,6 °C
29.11.2016 21:21 22,2 °C -5,6 °C 39 % 90 % 1032,6 hPa 0,0 l/m² 0,0 km/h (0 Bft) SO 135 ° -7,0 °C -5,6 °C
29.11.2016 21:25 22,2 °C -5,6 °C 39 % 91 % 1032,6 hPa 0,0 l/m² 0,0 km/h (0 Bft) SO 135 ° -6,8 °C -5,6 °C
29.11.2016 21:29 22,2 °C -5,6 °C 39 % 91 % 1032,5 hPa 0,0 l/m² 0,0 km/h (0 Bft) SO 135 ° -6,8 °C -5,6 °C
29.11.2016 21:33 22,2 °C -5,6 °C 39 % 91 % 1032,5 hPa 0,0 l/m² 0,0 km/h (0 Bft) SO 135 ° -6,8 °C -5,6 °C
29.11.2016 21:37 22,2 °C -5,5 °C 39 % 91 % 1032,3 hPa 0,0 l/m² 0,0 km/h (0 Bft) SO 135 ° -6,7 °C -5,5 °C
29.11.2016 21:41 22,2 °C -5,4 °C 39 % 91 % 1032,3 hPa 0,0 l/m² 0,0 km/h (0 Bft) SO 135 ° -6,6 °C -5,4 °C
29.11.2016 21:45 22,2 °C -5,5 °C 39 % 91 % 1032,4 hPa 0,0 l/m² 0,0 km/h (0 Bft) SO 135 ° -6,7 °C -5,5 °C
29.11.2016 21:49 22,2 °C -5,5 °C 39 % 91 % 1032,4 hPa 0,0 l/m² 0,0 km/h (0 Bft) SO 135 ° -6,7 °C -5,5 °C
29.11.2016 21:53 22,3 °C -5,5 °C 39 % 91 % 1032,3 hPa 0,0 l/m² 0,0 km/h (0 Bft) SO 135 ° -6,7 °C -5,5 °C
29.11.2016 21:57 22,3 °C -5,4 °C 40 % 91 % 1032,2 hPa 0,0 l/m² 0,0 km/h (0 Bft) SO 135 ° -6,6 °C -5,4 °C
29.11.2016 22:01 22,3 °C -5,4 °C 40 % 91 % 1032,1 hPa 0,0 l/m² 0,0 km/h (0 Bft) SO 135 ° -6,6 °C -5,4 °C
29.11.2016 22:05 22,3 °C -5,3 °C 40 % 91 % 1032,1 hPa 0,0 l/m² 0,0 km/h (0 Bft) S-SW 202 ° -6,5 °C -5,3 °C
29.11.2016 22:09 22,3 °C -5,2 °C 40 % 91 % 1032,2 hPa 0,0 l/m² 1,8 km/h (1 Bft) S-SW 202 ° -6,4 °C -5,2 °C
29.11.2016 22:13 22,4 °C -5,1 °C 40 % 91 % 1032,0 hPa 0,0 l/m² 0,0 km/h (0 Bft) S-SW 202 ° -6,3 °C -5,1 °C
29.11.2016 22:17 22,4 °C -5,1 °C 40 % 91 % 1031,9 hPa 0,0 l/m² 0,0 km/h (0 Bft) S-SW 202 ° -6,3 °C -5,1 °C
29.11.2016 22:21 22,4 °C -5,1 °C 40 % 91 % 1031,8 hPa 0,0 l/m² 0,0 km/h (0 Bft) S-SW 202 ° -6,3 °C -5,1 °C
29.11.2016 22:25 22,4 °C -5,1 °C 40 % 91 % 1031,8 hPa 0,0 l/m² 0,0 km/h (0 Bft) S-SW 202 ° -6,3 °C -5,1 °C
29.11.2016 22:29 22,4 °C -5,1 °C 40 % 91 % 1031,6 hPa 0,0 l/m² 0,0 km/h (0 Bft) S-SW 202 ° -6,3 °C -5,1 °C
29.11.2016 22:33 22,5 °C -5,2 °C 40 % 91 % 1031,6 hPa 0,0 l/m² 2,2 km/h (1 Bft) S-SW 202 ° -6,4 °C -5,2 °C
29.11.2016 22:37 22,5 °C -5,4 °C 40 % 91 % 1031,5 hPa 0,0 l/m² 0,0 km/h (0 Bft) SO 135 ° -6,6 °C -5,4 °C
29.11.2016 22:41 22,5 °C -5,4 °C 40 % 91 % 1031,5 hPa 0,0 l/m² 0,0 km/h (0 Bft) SO 135 ° -6,6 °C -5,4 °C
29.11.2016 22:45 22,5 °C -5,5 °C 40 % 91 % 1031,6 hPa 0,0 l/m² 0,0 km/h (0 Bft) SO 135 ° -6,7 °C -5,5 °C
29.11.2016 22:49 22,5 °C -5,5 °C 40 % 91 % 1031,4 hPa 0,0 l/m² 2,9 km/h (1 Bft) SO 135 ° -6,7 °C -5,5 °C
29.11.2016 22:53 22,6 °C -5,5 °C 40 % 91 % 1031,5 hPa 0,0 l/m² 2,2 km/h (1 Bft) SO 135 ° -6,7 °C -5,5 °C
29.11.2016 22:57 22,6 °C -5,5 °C 41 % 91 % 1031,6 hPa 0,0 l/m² 3,6 km/h (1 Bft) SO 135 ° -6,7 °C -5,5 °C
29.11.2016 23:01 22,6 °C -5,6 °C 40 % 91 % 1031,6 hPa 0,0 l/m² 0,0 km/h (0 Bft) SO 135 ° -6,8 °C -5,6 °C
29.11.2016 23:05 22,6 °C -5,6 °C 40 % 91 % 1031,6 hPa 0,0 l/m² 0,0 km/h (0 Bft) SO 135 ° -6,8 °C -5,6 °C
29.11.2016 23:09 22,6 °C -5,6 °C 40 % 91 % 1031,5 hPa 0,0 l/m² 0,0 km/h (0 Bft) SO 135 ° -6,8 °C -5,6 °C
29.11.2016 23:13 22,6 °C -5,5 °C 41 % 91 % 1031,5 hPa 0,0 l/m² 2,5 km/h (1 Bft) SO 135 ° -6,7 °C -5,5 °C
29.11.2016 23:17 22,6 °C -5,6 °C 41 % 91 % 1031,6 hPa 0,0 l/m² 0,0 km/h (0 Bft) SO 135 ° -6,8 °C -5,6 °C
29.11.2016 23:21 22,6 °C -5,6 °C 41 % 91 % 1031,6 hPa 0,0 l/m² 0,0 km/h (0 Bft) SO 135 ° -6,8 °C -5,6 °C
29.11.2016 23:25 22,6 °C -5,7 °C 41 % 91 % 1031,5 hPa 0,0 l/m² 3,2 km/h (1 Bft) SO 135 ° -6,9 °C -5,7 °C
29.11.2016 23:29 22,6 °C -5,9 °C 41 % 91 % 1031,6 hPa 0,0 l/m² 2,5 km/h (1 Bft) SO 135 ° -7,1 °C -5,9 °C
29.11.2016 23:33 22,6 °C -5,9 °C 41 % 91 % 1031,7 hPa 0,0 l/m² 4,0 km/h (1 Bft) SO 135 ° -7,1 °C -5,9 °C
29.11.2016 23:37 22,6 °C -5,9 °C 41 % 91 % 1031,6 hPa 0,0 l/m² 0,0 km/h (0 Bft) SO 135 ° -7,1 °C -5,9 °C
29.11.2016 23:41 22,6 °C -5,9 °C 41 % 91 % 1031,6 hPa 0,0 l/m² 1,8 km/h (1 Bft) SO 135 ° -7,1 °C -5,9 °C
29.11.2016 23:45 22,6 °C -5,9 °C 41 % 91 % 1031,6 hPa 0,0 l/m² 2,5 km/h (1 Bft) SO 135 ° -7,1 °C -5,9 °C
29.11.2016 23:49 22,6 °C -5,9 °C 41 % 91 % 1031,6 hPa 0,0 l/m² 0,0 km/h (0 Bft) SO 135 ° -7,1 °C -5,9 °C
29.11.2016 23:53 22,6 °C -5,9 °C 41 % 91 % 1031,7 hPa 0,0 l/m² 0,0 km/h (0 Bft) SO 135 ° -7,1 °C -5,9 °C
29.11.2016 23:57 22,6 °C -6,1 °C 41 % 91 % 1031,7 hPa 0,0 l/m² 2,5 km/h (1 Bft) SO 135 ° -7,3 °C -6,1 °C
_ Min-Zeit 05:57 08:21 20:13 15:41 22:49 - 23:53 - - 08:21 08:21
Minimum _ 21,4 °C -7,1 °C 25 % 83 % 1031,4 hPa - 0,0 km/h (0 Bft) - - -8,2 °C -7,1 °C
_ Max-Zeit 14:45 14:05 05:21 11:29 10:45 23:57 11:53 - - 13:17 14:05
Maximum _ 24,1 °C 2,8 °C 45 % 93 % 1034,6 hPa 0,0 l/m² 11,2 km/h
S (2 Bft)
- - 0,7 °C 2,8 °C
Durchschnitt _ 22,9 °C -3,2 °C 41 % 90 % 1033,2 hPa #0,0 l/m² 2,0 km/h (1 Bft) N - -4,6 °C -3,4 °C
© 2009 Mathias Hoßbach